M I D A S
Marine Information and Data Acquisition System
Tripno 1807 of the Zeeleeuw from 2009-11-16 07:53:23 to 2009-11-16 16:18:57
Back to CruiseResearch ActivitiesStationsMapUnderway DataData graphs

EquipmentUnitsComments
TimeDGPSUTC
LatitudeDGPSDM.mWGS84
LongitudeDGPSDM.mWGS84
SpeedMeteo Stationm/sRelative wind speed
DirectionMeteo StationdegRelative wind direction
TemperatureMeteo Stationdeg CelciusAir temperature
PressureMeteo StationPaAtmospheric pressure
HumidityMeteo Station%Relative humidity
Missing or incorrect values are displayed as -999
Metereological data collected by the RV Zeeleeuw from 2009-11-16 07:36:09 to 2009-11-16 16:26:54
Time Latitude Longitude Speed Direction Temperature Pressure Humidity
2009-11-16 07:37 51°13.677 2°55.893 1.5 358 10.7 100180 45
2009-11-16 07:38 51°13.688 2°55.81 0.5 8 10.7 100170 48
2009-11-16 07:39 51°13.686 2°55.745 4.3 23 10.7 100170 47
2009-11-16 07:40 51°13.698 2°55.741 2.7 32 10.7 100170 47
2009-11-16 07:41 51°13.746 2°55.709 -999 35 10.7 100160 46
2009-11-16 07:42 51°13.842 2°55.628 0.2 33 10.9 100150 43
2009-11-16 07:43 51°13.965 2°55.543 -999 35 11 100140 46
2009-11-16 07:44 51°14.097 2°55.449 -999 35 11 100140 46
2009-11-16 07:45 51°14.227 2°55.324 -999 259 11.1 100140 46
2009-11-16 07:46 51°14.328 2°55.132 0.2 32 11 100130 48
2009-11-16 07:47 51°14.382 2°54.875 5.4 39 11 100130 44
2009-11-16 07:48 51°14.415 2°54.582 6.2 245 11 100120 47
2009-11-16 07:49 51°14.361 2°54.288 10.6 237 11 100120 45
2009-11-16 07:50 51°14.265 2°54.012 12.5 32 11 100100 47
2009-11-16 07:51 51°14.17 2°53.733 9.1 240 11.1 100100 46
2009-11-16 07:52 51°14.079 2°53.45 9.8 235 11.1 100110 45
2009-11-16 07:53 51°13.991 2°53.163 10.7 32 11.1 100100 45
2009-11-16 07:54 51°13.905 2°52.875 10.5 34 11.1 100100 47
2009-11-16 07:55 51°13.816 2°52.589 11.3 32 11.2 100100 45
2009-11-16 07:56 51°13.716 2°52.312 12 238 11.2 100100 46
2009-11-16 07:57 51°13.614 2°52.03 10.2 234 11.2 100100 46
2009-11-16 07:58 51°13.512 2°51.743 11.9 37 11.2 100100 45
2009-11-16 07:59 51°13.409 2°51.458 12.2 237 11.2 100090 45
2009-11-16 08:00 51°13.307 2°51.172 11.5 34 11.2 100090 46
2009-11-16 08:01 51°13.209 2°50.883 13 237 11.2 100080 47
2009-11-16 08:02 51°13.114 2°50.592 11.3 237 11.2 100080 46
2009-11-16 08:03 51°13.02 2°50.301 12.1 32 11.2 100080 45
2009-11-16 08:04 51°12.926 2°50.012 12.1 236 11.1 100080 45
2009-11-16 08:05 51°12.831 2°49.723 12.9 235 11.2 100080 46
2009-11-16 08:06 51°12.738 2°49.434 10.7 33 11.2 100090 47
2009-11-16 08:07 51°12.645 2°49.145 10.8 36 11.2 100090 46
2009-11-16 08:08 51°12.563 2°48.85 11.5 30 11.2 100100 47
2009-11-16 08:09 51°12.481 2°48.556 12.4 232 11.2 100100 46
2009-11-16 08:10 51°12.399 2°48.263 11.6 35 11.2 100110 46
2009-11-16 08:11 51°12.316 2°47.972 13.7 32 11.2 100110 45
2009-11-16 08:12 51°12.234 2°47.683 13.8 32 11.3 100100 45
2009-11-16 08:13 51°12.154 2°47.393 12.9 33 11.3 100100 45
2009-11-16 08:14 51°12.072 2°47.105 13.1 235 11.3 100100 47
2009-11-16 08:15 51°11.991 2°46.815 13.1 237 11.3 100080 45
2009-11-16 08:16 51°11.918 2°46.515 13 239 11.3 100080 45
2009-11-16 08:17 51°11.867 2°46.204 12.7 242 11.4 100060 47
2009-11-16 08:18 51°11.847 2°45.885 11.3 247 11.4 100070 46
2009-11-16 08:19 51°11.832 2°45.567 11.1 246 11.4 100070 47
2009-11-16 08:20 51°11.804 2°45.255 10.8 246 11.5 100060 45
2009-11-16 08:21 51°11.756 2°44.748 11.1 304 11.5 100060 47
2009-11-16 08:22 51°11.725 2°44.44 13 282 11.5 100060 47
2009-11-16 08:23 51°11.689 2°44.135 11.4 303 11.6 100060 48
2009-11-16 08:24 51°11.652 2°43.832 10 280 11.6 100030 47
2009-11-16 08:25 51°11.615 2°43.529 12.6 303 11.6 100030 45
2009-11-16 08:26 51°11.578 2°43.227 13.6 282 11.6 100030 47
2009-11-16 08:27 51°11.542 2°42.926 12.2 302 11.6 100030 46
2009-11-16 08:28 51°11.504 2°42.625 10.4 282 11.6 100030 46
2009-11-16 08:29 51°11.466 2°42.323 11.2 306 11.6 100030 45
2009-11-16 08:30 51°11.427 2°42.022 10.8 282 11.6 100020 48
2009-11-16 08:31 51°11.363 2°41.735 12.2 307 11.6 100010 46
2009-11-16 08:32 51°11.282 2°41.456 13.7 278 11.6 100000 46
2009-11-16 08:33 51°11.184 2°41.187 13 309 11.7 100000 45
2009-11-16 08:34 51°11.083 2°40.916 13.6 284 11.7 99990 46
2009-11-16 08:35 51°10.97 2°40.66 13.4 303 11.7 100000 46
2009-11-16 08:36 51°10.831 2°40.441 12.9 283 11.7 100000 47
2009-11-16 08:37 51°10.676 2°40.257 13.9 309 11.7 99990 48
2009-11-16 08:38 51°10.501 2°40.136 13.8 286 11.7 100010 46
2009-11-16 08:39 51°10.321 2°40.042 14.9 325 11.8 100020 47
2009-11-16 08:40 51°10.144 2°40.049 13.1 278 11.8 100030 46
2009-11-16 08:41 51°10.091 2°40.161 10.2 8 11.7 100030 44
2009-11-16 08:42 51°10.091 2°40.266 10.5 359 11.8 100020 47
2009-11-16 08:43 51°10.053 2°40.312 9.9 331 11.7 100020 46
2009-11-16 08:44 51°10.013 2°40.29 8.5 280 11.8 100020 45
2009-11-16 08:45 51°10.001 2°40.247 9.4 303 11.8 100030 45
2009-11-16 08:46 51°10.003 2°40.236 6.1 280 11.7 100070 48
2009-11-16 08:47 51°10.008 2°40.224 7.1 303 11.7 100060 46
2009-11-16 08:48 51°10.012 2°40.213 6 281 11.8 100040 45
2009-11-16 08:49 51°10.017 2°40.202 5.3 307 11.8 100050 45
2009-11-16 08:50 51°10.022 2°40.191 3.5 265 11.8 100040 49
2009-11-16 08:51 51°10.027 2°40.181 3.8 261 11.8 100030 48
2009-11-16 08:52 51°10.032 2°40.172 3.7 264 11.8 100050 45
2009-11-16 08:53 51°10.038 2°40.165 4.3 263 11.8 100060 46
2009-11-16 08:54 51°10.043 2°40.159 3.3 262 11.8 100050 49
2009-11-16 08:55 51°10.049 2°40.153 4.3 261 11.8 100050 49
2009-11-16 08:56 51°10.055 2°40.148 3.7 263 11.9 100050 44
2009-11-16 08:57 51°10.06 2°40.144 2.9 269 11.9 100050 48
2009-11-16 08:58 51°10.065 2°40.14 3.8 266 11.9 100060 49
2009-11-16 08:59 51°10.071 2°40.136 3.4 263 11.9 100050 45
2009-11-16 09:00 51°10.077 2°40.133 3.6 265 11.9 100050 46
2009-11-16 09:01 51°10.082 2°40.13 2.7 263 11.9 100050 44
2009-11-16 09:02 51°10.088 2°40.129 3.3 265 11.9 100050 45
2009-11-16 09:03 51°10.093 2°40.128 4.3 262 11.9 100050 49
2009-11-16 09:04 51°10.099 2°40.127 4.1 265 11.9 100060 45
2009-11-16 09:05 51°10.106 2°40.127 3.9 264 11.9 100060 44
2009-11-16 09:06 51°10.114 2°40.128 3.6 268 11.9 100060 45
2009-11-16 09:07 51°10.122 2°40.131 3.1 264 12 100070 47
2009-11-16 09:08 51°10.131 2°40.135 4.3 264 12 100080 46
2009-11-16 09:09 51°10.141 2°40.138 3.2 263 12 100080 47
2009-11-16 09:10 51°10.148 2°40.141 5.4 261 12.1 100080 44
2009-11-16 09:11 51°10.157 2°40.145 4.5 262 12.1 100080 46
2009-11-16 09:12 51°10.166 2°40.15 4.2 263 12.1 100080 47
2009-11-16 09:13 51°10.176 2°40.158 2.4 261 12.1 100080 44
2009-11-16 09:14 51°10.186 2°40.169 3 267 12.1 100090 44
2009-11-16 09:15 51°10.196 2°40.151 7.8 258 12.1 100080 48
2009-11-16 09:16 51°10.204 2°40.05 7.4 249 12.2 100070 47
2009-11-16 09:17 51°10.2 2°39.851 9 32 12.2 100070 49
2009-11-16 09:18 51°10.137 2°39.602 10.9 37 12.2 100050 46
2009-11-16 09:19 51°10.065 2°39.341 10.7 37 12.2 100040 48
2009-11-16 09:20 51°9.995 2°39.08 11.2 233 12.2 100040 48
2009-11-16 09:21 51°9.926 2°38.819 12.8 32 12.3 100050 45
2009-11-16 09:22 51°9.858 2°38.559 11.7 232 12.3 100050 45
2009-11-16 09:23 51°9.791 2°38.299 10.4 34 12.3 100050 46
2009-11-16 09:24 51°9.725 2°38.041 8.3 38 12.3 100040 48
2009-11-16 09:25 51°9.659 2°37.783 9.6 33 12.4 100040 49
2009-11-16 09:26 51°9.613 2°37.562 7.4 251 12.3 100050 48
2009-11-16 09:27 51°9.657 2°37.488 1.9 38 12.3 100070 44
2009-11-16 09:28 51°9.726 2°37.526 3.1 42 12.4 100060 49
2009-11-16 09:29 51°9.789 2°37.6 3.1 32 12.4 100060 47
2009-11-16 09:30 51°9.833 2°37.683 3.6 32 12.4 100060 49
2009-11-16 09:31 51°9.867 2°37.772 3.4 27 12.4 100070 48
2009-11-16 09:32 51°9.892 2°37.863 3.2 21 12.4 100060 45
2009-11-16 09:33 51°9.916 2°37.952 4.3 27 12.4 100060 44
2009-11-16 09:34 51°9.946 2°38.037 2.3 28 12.4 100060 47
2009-11-16 09:35 51°9.976 2°38.121 2.8 32 12.4 100060 44
2009-11-16 09:36 51°10.007 2°38.205 3.2 32 12.4 100060 49
2009-11-16 09:37 51°10.038 2°38.289 3.3 31 12.5 100060 44
2009-11-16 09:38 51°10.068 2°38.372 2.9 31 12.5 100050 44
2009-11-16 09:39 51°10.098 2°38.456 3.9 29 12.5 100060 50
2009-11-16 09:40 51°10.129 2°38.54 3.3 29 12.5 100060 45
2009-11-16 09:41 51°10.16 2°38.625 2.5 30 12.6 100060 45
2009-11-16 09:42 51°10.19 2°38.71 2.3 31 12.6 100070 49
2009-11-16 09:43 51°10.22 2°38.796 2.4 31 12.7 100060 50
2009-11-16 09:44 51°10.251 2°38.885 4.5 38 12.7 100070 49
2009-11-16 09:45 51°10.282 2°38.976 4.6 31 12.7 100060 49
2009-11-16 09:46 51°10.316 2°39.068 3.3 34 12.7 100060 46
2009-11-16 09:47 51°10.349 2°39.161 4.7 35 12.7 100080 48
2009-11-16 09:48 51°10.382 2°39.254 3.6 33 12.7 100070 45
2009-11-16 09:49 51°10.414 2°39.346 4.3 37 12.8 100070 45
2009-11-16 09:50 51°10.446 2°39.44 3 33 12.8 100080 45
2009-11-16 09:51 51°10.478 2°39.534 4.7 32 12.9 100070 49
2009-11-16 09:52 51°10.511 2°39.63 4.4 33 12.9 100070 46
2009-11-16 09:53 51°10.546 2°39.725 4 37 13 100070 45
2009-11-16 09:54 51°10.585 2°39.822 4.5 38 13 100070 46
2009-11-16 09:55 51°10.623 2°39.916 4.5 40 13 100080 46
2009-11-16 09:56 51°10.663 2°40.008 5.9 39 13 100080 45
2009-11-16 09:57 51°10.703 2°40.099 4.7 43 13 100090 45
2009-11-16 09:58 51°10.747 2°40.185 5 77 13.1 100080 45
2009-11-16 09:59 51°10.795 2°40.26 3.8 37 13.1 100080 49
2009-11-16 10:00 51°10.843 2°40.335 4.6 41 13.1 100080 49
2009-11-16 10:01 51°10.876 2°40.429 4.3 32 13.2 100080 45
2009-11-16 10:02 51°10.902 2°40.524 5.3 29 13.2 100080 49
2009-11-16 10:03 51°10.92 2°40.62 4.7 21 13.2 100080 47
2009-11-16 10:04 51°10.929 2°40.721 4.9 15 13.2 100090 49
2009-11-16 10:05 51°10.935 2°40.817 5.2 17 13.2 100080 48
2009-11-16 10:06 51°10.945 2°40.895 4.4 12 13.2 100080 49
2009-11-16 10:07 51°10.957 2°40.964 4.7 11 13.2 100100 45
2009-11-16 10:08 51°10.97 2°41.026 6.8 11 13.3 100080 46
2009-11-16 10:09 51°10.984 2°41.098 6.8 22 13.3 100080 44
2009-11-16 10:10 51°11.033 2°41.236 2.6 81 13.3 100090 50
2009-11-16 10:11 51°11.169 2°41.327 1.8 31 13.4 100100 48
2009-11-16 10:12 51°11.342 2°41.473 1.6 79 13.4 100100 46
2009-11-16 10:13 51°11.497 2°41.699 2.1 19 13.4 100100 49
2009-11-16 10:14 51°11.601 2°41.997 3.7 22 13.4 100090 49
2009-11-16 10:15 51°11.664 2°42.319 6.1 11 13.4 100090 45
2009-11-16 10:16 51°11.674 2°42.655 5 10 13.3 100080 45
2009-11-16 10:17 51°11.663 2°42.995 6.7 7 13.3 100070 44
2009-11-16 10:18 51°11.652 2°43.337 6.8 3 13.4 100070 45
2009-11-16 10:19 51°11.644 2°43.682 6.2 7 13.4 100070 49
2009-11-16 10:20 51°11.651 2°44.03 8.8 8 13.4 100080 45
2009-11-16 10:21 51°11.668 2°44.379 5.8 12 13.4 100080 49
2009-11-16 10:22 51°11.695 2°44.728 5.3 8 13.4 100080 47
2009-11-16 10:23 51°11.73 2°45.076 5.1 8 13.3 100080 49
2009-11-16 10:25 51°11.823 2°45.745 5.9 8 13.3 100080 46
2009-11-16 10:26 51°11.871 2°46.095 6 -999 13.3 100080 45
2009-11-16 10:27 51°11.92 2°46.431 4.7 15 13.3 100080 49
2009-11-16 10:28 51°11.989 2°46.767 5.7 -999 13.3 100080 49
2009-11-16 10:29 51°12.059 2°47.097 4.5 20 13.3 100080 45
2009-11-16 10:30 51°12.106 2°47.317 5.9 -999 13.3 100080 45
2009-11-16 10:31 51°12.135 2°47.463 4.1 22 13.3 100090 48
2009-11-16 10:32 51°12.156 2°47.577 5.2 -999 13.3 100090 46
2009-11-16 10:33 51°12.171 2°47.718 5.3 11 13.4 100080 48
2009-11-16 10:34 51°12.177 2°47.859 7.3 -999 13.4 100080 49
2009-11-16 10:35 51°12.184 2°47.981 5.8 10 13.4 100090 45
2009-11-16 10:36 51°12.198 2°48.1 7.4 -999 13.4 100100 45
2009-11-16 10:37 51°12.219 2°48.215 5 23 13.5 100090 47
2009-11-16 10:38 51°12.248 2°48.326 5 -999 13.5 100090 48
2009-11-16 10:39 51°12.274 2°48.433 7.8 25 13.5 100090 49
2009-11-16 10:40 51°12.298 2°48.543 8.8 -999 13.5 100080 46
2009-11-16 10:41 51°12.325 2°48.654 7.9 27 13.5 100080 44
2009-11-16 10:42 51°12.353 2°48.762 5.9 29 13.6 100080 45
2009-11-16 10:43 51°12.381 2°48.861 5.5 34 13.6 100080 49
2009-11-16 10:44 51°12.412 2°48.962 6.6 23 13.6 100080 46
2009-11-16 10:45 51°12.442 2°49.062 6.9 -999 13.7 100080 45
2009-11-16 10:46 51°12.472 2°49.167 7 29 13.7 100090 48
2009-11-16 10:47 51°12.501 2°49.271 5.5 33 13.8 100090 45
2009-11-16 10:48 51°12.533 2°49.373 5.2 31 13.8 100090 48
2009-11-16 10:49 51°12.565 2°49.475 7.5 36 13.8 100100 47
2009-11-16 10:50 51°12.598 2°49.576 4.7 36 13.9 100090 49
2009-11-16 10:51 51°12.63 2°49.676 5.3 -999 13.8 100080 49
2009-11-16 10:52 51°12.663 2°49.779 6.9 25 13.9 100080 45
2009-11-16 10:53 51°12.697 2°49.88 5.1 30 13.9 100080 45
2009-11-16 10:54 51°12.731 2°49.982 12.3 31 14 100080 48
2009-11-16 10:55 51°12.765 2°50.085 6 30 14 100080 47
2009-11-16 10:56 51°12.798 2°50.187 6.3 34 14.1 100090 49
2009-11-16 10:57 51°12.835 2°50.291 5.2 37 14.2 100080 46
2009-11-16 10:58 51°12.873 2°50.391 5.8 38 14.2 100090 49
2009-11-16 10:59 51°12.911 2°50.49 6.2 34 14.2 100090 45
2009-11-16 11:00 51°12.951 2°50.586 7.4 35 14.3 100090 45
2009-11-16 11:01 51°12.993 2°50.684 7.9 39 14.3 100090 46
2009-11-16 11:02 51°13.035 2°50.776 5.1 39 14.3 100080 48
2009-11-16 11:03 51°13.073 2°50.874 5.2 31 14.3 100080 49
2009-11-16 11:04 51°13.105 2°50.975 5.2 27 14.3 100080 46
2009-11-16 11:05 51°13.127 2°51.077 6.7 -999 14.4 100070 44
2009-11-16 11:06 51°13.149 2°51.176 7 26 14.4 100060 48
2009-11-16 11:07 51°13.17 2°51.273 6.1 22 14.4 100070 49
2009-11-16 11:08 51°13.189 2°51.373 5.1 21 14.5 100080 45
2009-11-16 11:09 51°13.205 2°51.469 8.9 -999 14.5 100060 48
2009-11-16 11:10 51°13.224 2°51.547 6.7 16 14.5 100060 47
2009-11-16 11:11 51°13.244 2°51.612 6.5 8 14.5 100060 45
2009-11-16 11:12 51°13.263 2°51.704 6.7 26 14.5 100050 45
2009-11-16 11:13 51°13.325 2°51.801 5.6 26 14.6 100060 48
2009-11-16 11:14 51°13.389 2°51.773 7.8 251 14.6 100030 46
2009-11-16 11:15 51°13.422 2°51.643 10.9 -999 14.7 100020 48
2009-11-16 11:16 51°13.455 2°51.606 7.9 284 14.7 100010 46
2009-11-16 11:17 51°13.493 2°51.624 10.3 258 14.7 100030 48
2009-11-16 11:18 51°13.526 2°51.653 9.8 286 14.7 100030 48
2009-11-16 11:19 51°13.559 2°51.691 8.7 252 14.7 100020 47
2009-11-16 11:20 51°13.592 2°51.736 5.3 252 14.7 100030 45
2009-11-16 11:21 51°13.623 2°51.796 5.1 257 14.7 100040 45
2009-11-16 11:22 51°13.654 2°51.858 4.2 263 14.6 100030 49
2009-11-16 11:23 51°13.685 2°51.919 5.5 286 14.6 100030 46
2009-11-16 11:24 51°13.718 2°51.981 8.7 270 14.7 100030 47
2009-11-16 11:25 51°13.75 2°52.042 3.3 285 14.8 100020 48
2009-11-16 11:26 51°13.784 2°52.105 3.9 265 14.8 100020 45
2009-11-16 11:27 51°13.811 2°52.174 8.9 287 14.8 100020 48
2009-11-16 11:28 51°13.824 2°52.266 11.9 24 14.8 100030 46
2009-11-16 11:29 51°13.844 2°52.334 8.1 22 14.9 100030 45
2009-11-16 11:30 51°13.888 2°52.332 6.7 29 14.9 100030 45
2009-11-16 11:31 51°13.894 2°52.313 11.2 281 14.9 100010 47
2009-11-16 11:32 51°13.905 2°52.322 11.2 316 15 100010 48
2009-11-16 11:33 51°13.923 2°52.343 8.8 317 15 100020 48
2009-11-16 11:34 51°13.943 2°52.373 11.4 320 15 100020 47
2009-11-16 11:35 51°13.946 2°52.402 11.4 339 15 100020 46
2009-11-16 11:36 51°13.941 2°52.53 5.5 -999 15 100040 45
2009-11-16 11:37 51°13.991 2°52.765 4.9 23 15 100060 48
2009-11-16 11:38 51°14.087 2°53.026 4.7 38 15 100070 46
2009-11-16 11:39 51°14.183 2°53.275 5.7 38 15 100080 45
2009-11-16 11:40 51°14.278 2°53.525 5.7 29 14.9 100070 49
2009-11-16 11:41 51°14.372 2°53.787 4.5 30 14.9 100070 48
2009-11-16 11:42 51°14.46 2°54.093 5.4 18 14.9 100070 45
2009-11-16 11:43 51°14.573 2°54.397 4.7 42 14.9 100070 48
2009-11-16 11:44 51°14.725 2°54.639 3.9 39 15 100070 45
2009-11-16 11:45 51°14.895 2°54.871 3.4 -999 15 100070 47
2009-11-16 11:46 51°15.06 2°55.104 3.6 23 14.9 100080 44
2009-11-16 11:47 51°15.226 2°55.341 3.4 21 14.9 100070 46
2009-11-16 11:48 51°15.391 2°55.577 4.2 23 14.9 100080 47
2009-11-16 11:49 51°15.555 2°55.811 3.2 30 15 100080 46
2009-11-16 11:50 51°15.713 2°56.033 3.2 37 15 100070 45
2009-11-16 11:51 51°15.871 2°56.272 3.5 39 15 100080 48
2009-11-16 11:52 51°16.009 2°56.53 4.6 36 15 100080 44
2009-11-16 11:53 51°16.152 2°56.801 4.1 35 15 100080 47
2009-11-16 11:54 51°16.278 2°57.081 2.7 27 15 100070 44
2009-11-16 11:55 51°16.374 2°57.382 5.9 24 15 100070 49
2009-11-16 11:56 51°16.466 2°57.699 5.9 34 15 100070 48
2009-11-16 11:57 51°16.558 2°58.002 3.6 28 15 100080 48
2009-11-16 11:58 51°16.658 2°58.309 4.1 33 15 100080 49
2009-11-16 11:59 51°16.78 2°58.582 2.8 41 15 100080 45
2009-11-16 12:00 51°16.909 2°58.861 2.2 33 15.1 100080 47
2009-11-16 12:01 51°17.031 2°59.132 4.3 43 15 100080 44
2009-11-16 12:02 51°17.16 2°59.41 2.7 43 15 100080 48
2009-11-16 12:03 51°17.288 2°59.687 3.3 44 15 100080 49
2009-11-16 12:04 51°17.414 2°59.964 6.5 37 15 100080 48
2009-11-16 12:05 51°17.543 3°0.255 3.9 34 15.1 100080 45
2009-11-16 12:06 51°17.672 3°0.54 2.8 21 15.1 100080 47
2009-11-16 12:07 51°17.802 3°0.825 3.6 39 15.1 100080 47
2009-11-16 12:08 51°17.928 3°1.113 3.1 32 15.1 100080 47
2009-11-16 12:09 51°18.056 3°1.397 2.8 41 15.1 100070 47
2009-11-16 12:10 51°18.184 3°1.679 3.1 35 15 100080 44
2009-11-16 12:11 51°18.31 3°1.958 5.2 43 15 100070 45
2009-11-16 12:12 51°18.436 3°2.238 3.5 42 15 100070 46
2009-11-16 12:13 51°18.562 3°2.514 4.1 37 14.9 100080 45
2009-11-16 12:14 51°18.687 3°2.789 3.7 22 14.9 100070 48
2009-11-16 12:15 51°18.812 3°3.061 3 38 15 100080 44
2009-11-16 12:16 51°18.941 3°3.343 4.9 34 15 100070 47
2009-11-16 12:17 51°19.066 3°3.614 4.5 21 15 100080 44
2009-11-16 12:18 51°19.193 3°3.887 2.8 44 15 100080 48
2009-11-16 12:19 51°19.319 3°4.159 3.5 41 14.9 100080 48
2009-11-16 12:20 51°19.447 3°4.435 3.2 24 14.9 100080 46
2009-11-16 12:21 51°19.57 3°4.704 4.6 37 14.9 100080 48
2009-11-16 12:22 51°19.701 3°4.975 2.5 23 14.9 100090 47
2009-11-16 12:23 51°19.856 3°5.205 2.6 27 15.2 100100 48
2009-11-16 12:24 51°20.013 3°5.431 2.5 27 15.6 100080 47
2009-11-16 12:25 51°20.17 3°5.658 3.5 26 16.5 100080 46
2009-11-16 12:26 51°20.323 3°5.883 2.5 26 16.6 100080 45
2009-11-16 12:27 51°20.481 3°6.119 3 23 16.3 100090 46
2009-11-16 12:29 51°20.707 3°6.456 2.5 29 15.7 100100 45
2009-11-16 12:30 51°20.866 3°6.691 2.7 22 15.6 100090 49
2009-11-16 12:31 51°21.019 3°6.917 6 21 15.6 100090 47
2009-11-16 12:32 51°21.171 3°7.154 7.4 20 15.2 100090 45
2009-11-16 12:33 51°21.299 3°7.424 3.3 22 15 100100 46
2009-11-16 12:34 51°21.425 3°7.708 3.2 25 14.9 100100 47
2009-11-16 12:35 51°21.547 3°7.985 3.5 29 14.7 100110 48
2009-11-16 12:36 51°21.672 3°8.27 4.9 28 14.6 100100 46
2009-11-16 12:37 51°21.782 3°8.57 5.2 22 14.5 100100 47
2009-11-16 12:38 51°21.888 3°8.868 4.3 23 14.6 100100 45
2009-11-16 12:39 51°21.994 3°9.165 3.9 19 14.4 100110 46
2009-11-16 12:40 51°22.076 3°9.478 6.5 22 14.7 100120 46
2009-11-16 12:41 51°22.145 3°9.799 5.2 29 14.4 100120 45
2009-11-16 12:42 51°22.214 3°10.125 5.9 19 14.1 100120 46
2009-11-16 12:43 51°22.285 3°10.452 6.5 23 13.9 100130 45
2009-11-16 12:44 51°22.338 3°10.774 8.2 45 13.7 100120 48
2009-11-16 12:45 51°22.372 3°10.983 3.8 24 13.6 100120 48
2009-11-16 12:46 51°22.43 3°11.082 13.3 28 13.6 100090 47
2009-11-16 12:47 51°22.466 3°11.147 6.2 265 13.6 100130 45
2009-11-16 12:48 51°22.491 3°11.211 9.8 261 13.5 100130 45
2009-11-16 12:49 51°22.514 3°11.277 14.7 257 13.5 100130 47
2009-11-16 12:50 51°22.535 3°11.344 12.7 261 13.5 100130 46
2009-11-16 12:51 51°22.556 3°11.414 11.2 263 13.4 100150 45
2009-11-16 12:52 51°22.575 3°11.486 7.3 263 13.4 100140 48
2009-11-16 12:53 51°22.594 3°11.559 11.7 261 13.4 100150 45
2009-11-16 12:54 51°22.614 3°11.631 9.7 262 13.5 100170 44
2009-11-16 12:55 51°22.639 3°11.695 17.8 259 13.5 100160 44
2009-11-16 12:56 51°22.68 3°11.682 14.4 23 13.5 100080 45
2009-11-16 12:57 51°22.691 3°11.613 15.3 318 13.5 100080 44
2009-11-16 12:58 51°22.69 3°11.514 20.8 320 13.5 100060 44
2009-11-16 12:59 51°22.698 3°11.456 16.7 317 13.7 100060 43
2009-11-16 13:00 51°22.718 3°11.455 13.4 26 13.7 100080 44
2009-11-16 13:01 51°22.744 3°11.466 16.4 316 13.7 100090 44
2009-11-16 13:02 51°22.77 3°11.481 14.5 21 13.7 100090 44
2009-11-16 13:03 51°22.798 3°11.498 16.2 22 13.6 100090 44
2009-11-16 13:04 51°22.824 3°11.522 13.5 21 13.6 100090 44
2009-11-16 13:05 51°22.852 3°11.582 14.4 249 13.6 100110 45
2009-11-16 13:06 51°22.871 3°11.659 12.4 259 13.6 100150 44
2009-11-16 13:07 51°22.887 3°11.735 9.8 266 13.5 100160 43
2009-11-16 13:08 51°22.905 3°11.81 11.2 268 13.6 100160 45
2009-11-16 13:09 51°22.925 3°11.884 12.1 267 13.6 100140 43
2009-11-16 13:10 51°22.945 3°11.956 10.7 263 13.5 100170 43
2009-11-16 13:11 51°22.967 3°12.029 8.5 263 13.5 100170 43
2009-11-16 13:12 51°22.987 3°12.1 10 261 13.4 100160 45
2009-11-16 13:13 51°23.006 3°12.17 9.7 261 13.4 100160 43
2009-11-16 13:14 51°23.025 3°12.241 8.1 263 13.4 100170 44
2009-11-16 13:15 51°23.046 3°12.31 8.2 263 13.4 100160 44
2009-11-16 13:16 51°23.1 3°12.359 8.8 21 13.4 100170 43
2009-11-16 13:17 51°23.204 3°12.418 8.2 268 13.4 100160 44
2009-11-16 13:18 51°23.328 3°12.441 8.6 260 13.4 100160 43
2009-11-16 13:19 51°23.484 3°12.383 10.9 250 13.3 100160 45
2009-11-16 13:20 51°23.617 3°12.231 16.1 22 13.4 100130 45
2009-11-16 13:21 51°23.681 3°12.012 14.6 22 13.3 100110 44
2009-11-16 13:22 51°23.727 3°11.782 14.6 23 13.4 100110 44
2009-11-16 13:23 51°23.745 3°11.557 15.1 19 13.4 100120 45
2009-11-16 13:24 51°23.819 3°11.514 5.9 263 13.4 100170 45
2009-11-16 13:25 51°23.904 3°11.562 3.6 268 13.3 100170 43
2009-11-16 13:26 51°24.006 3°11.669 6.7 22 13.3 100170 43
2009-11-16 13:27 51°24.03 3°11.818 9.2 37 13.4 100190 43
2009-11-16 13:28 51°24.034 3°11.941 10.1 29 13.3 100180 44
2009-11-16 13:29 51°24.022 3°12.055 11.8 18 13.4 100180 43
2009-11-16 13:30 51°24.008 3°12.163 9.9 24 13.3 100170 45
2009-11-16 13:31 51°24.001 3°12.277 9.4 32 13.3 100200 45
2009-11-16 13:32 51°23.997 3°12.393 12.1 30 13.4 100170 43
2009-11-16 13:33 51°23.992 3°12.505 11.1 22 13.4 100180 45
2009-11-16 13:34 51°23.979 3°12.607 11.6 18 13.3 100130 45
2009-11-16 13:35 51°23.958 3°12.702 11.6 19 13.3 100130 44
2009-11-16 13:36 51°23.936 3°12.801 12.9 19 13.3 100130 43
2009-11-16 13:37 51°23.912 3°12.903 11 17 13.3 100130 45
2009-11-16 13:38 51°23.889 3°13.007 11.1 20 13.3 100140 45
2009-11-16 13:39 51°23.866 3°13.112 11.9 19 13.3 100130 45
2009-11-16 13:40 51°23.843 3°13.218 11.3 18 13.3 100140 44
2009-11-16 13:41 51°23.821 3°13.324 11.3 20 13.3 100140 43
2009-11-16 13:42 51°23.802 3°13.435 10.3 22 13.3 100150 44
2009-11-16 13:43 51°23.785 3°13.549 11.6 27 13.4 100160 43
2009-11-16 13:44 51°23.772 3°13.667 9.9 25 13.4 100160 43
2009-11-16 13:45 51°23.761 3°13.791 10.2 27 13.4 100160 43
2009-11-16 13:46 51°23.753 3°13.91 9.3 26 13.4 100160 45
2009-11-16 13:47 51°23.743 3°14.021 12.2 27 13.4 100160 45
2009-11-16 13:48 51°23.737 3°14.13 15.2 32 13.4 100180 43
2009-11-16 13:49 51°23.734 3°14.241 14.6 32 13.4 100180 45
2009-11-16 13:50 51°23.733 3°14.353 12.5 35 13.4 100190 44
2009-11-16 13:51 51°23.734 3°14.466 11.4 35 13.4 100200 44
2009-11-16 13:52 51°23.736 3°14.579 10.7 39 13.3 100190 44
2009-11-16 13:53 51°23.736 3°14.69 11 36 13.3 100190 44
2009-11-16 13:54 51°23.735 3°14.799 13 32 13.3 100200 44
2009-11-16 13:55 51°23.736 3°14.908 11.7 36 13.3 100190 44
2009-11-16 13:56 51°23.738 3°15.019 11 39 13.3 100200 43
2009-11-16 13:57 51°23.742 3°15.132 11 42 13.2 100200 44
2009-11-16 13:58 51°23.746 3°15.243 11.4 38 13.2 100200 45
2009-11-16 13:59 51°23.748 3°15.352 9.2 33 13.2 100190 44
2009-11-16 14:00 51°23.749 3°15.458 8.1 32 13.2 100200 43
2009-11-16 14:01 51°23.741 3°15.555 14.5 24 13.2 100200 46
2009-11-16 14:02 51°23.721 3°15.647 12 26 13.1 100230 45
2009-11-16 14:03 51°23.698 3°15.741 15.1 22 13.2 100210 44
2009-11-16 14:04 51°23.669 3°15.824 12.9 20 13.2 100200 44
2009-11-16 14:05 51°23.635 3°15.895 13 13 13.2 100200 44
2009-11-16 14:06 51°23.613 3°15.949 15.2 9 13.2 100200 44
2009-11-16 14:07 51°23.608 3°15.998 12.6 12 13.2 100200 44
2009-11-16 14:08 51°23.609 3°16.042 10.9 14 13.1 100190 44
2009-11-16 14:09 51°23.61 3°16.089 13.5 9 13.1 100190 45
2009-11-16 14:10 51°23.553 3°16.092 16.2 334 13.1 100190 45
2009-11-16 14:11 51°23.547 3°15.965 17.7 317 13.1 100200 44
2009-11-16 14:12 51°23.547 3°15.747 17.8 324 13.1 100190 44
2009-11-16 14:13 51°23.512 3°15.5 19.9 325 13.2 100200 45
2009-11-16 14:14 51°23.472 3°15.253 18.3 325 13.2 100210 44
2009-11-16 14:15 51°23.434 3°15.007 18.4 325 13.2 100210 45
2009-11-16 14:16 51°23.397 3°14.763 15.6 322 13.2 100180 44
2009-11-16 14:17 51°23.36 3°14.524 20 323 13.1 100200 45
2009-11-16 14:18 51°23.325 3°14.287 21.6 320 13.2 100180 44
2009-11-16 14:19 51°23.293 3°14.049 22.1 325 13.2 100170 44
2009-11-16 14:20 51°23.263 3°13.817 18.4 325 13.3 100180 44
2009-11-16 14:21 51°23.229 3°13.587 19.8 323 13.3 100190 44
2009-11-16 14:22 51°23.196 3°13.355 16.8 324 13.3 100200 44
2009-11-16 14:23 51°23.162 3°13.127 17.3 324 13.2 100220 44
2009-11-16 14:24 51°23.13 3°12.902 17.6 325 13.2 100220 44
2009-11-16 14:25 51°23.101 3°12.682 19.1 324 13.2 100220 44
2009-11-16 14:26 51°23.073 3°12.458 18.4 325 13.2 100200 44
2009-11-16 14:27 51°23.043 3°12.248 18.5 326 13.2 100200 44
2009-11-16 14:28 51°22.997 3°12.024 15.8 325 13.2 100250 44
2009-11-16 14:29 51°22.95 3°11.803 16.5 327 13.2 100240 44
2009-11-16 14:30 51°22.906 3°11.583 18.3 328 13.2 100230 44
2009-11-16 14:31 51°22.862 3°11.361 17.9 324 13.1 100220 44
2009-11-16 14:32 51°22.82 3°11.129 18.5 326 13.1 100250 45
2009-11-16 14:33 51°22.777 3°10.898 18.6 327 13.1 100240 45
2009-11-16 14:34 51°22.734 3°10.669 17 327 12.9 100260 45
2009-11-16 14:35 51°22.692 3°10.445 17.4 323 12.9 100260 45
2009-11-16 14:36 51°22.648 3°10.215 19.8 327 13 100250 44
2009-11-16 14:37 51°22.603 3°9.977 19 329 13 100270 44
2009-11-16 14:38 51°22.556 3°9.746 18.9 329 13 100300 44
2009-11-16 14:39 51°22.512 3°9.512 17.8 326 13 100290 44
2009-11-16 14:40 51°22.466 3°9.289 17.2 328 13 100310 45
2009-11-16 14:41 51°22.406 3°9.067 16.5 330 13 100300 45
2009-11-16 14:42 51°22.34 3°8.837 14.4 330 13 100290 45
2009-11-16 14:43 51°22.279 3°8.62 15.7 330 12.9 100290 45
2009-11-16 14:44 51°22.217 3°8.398 14.4 329 12.9 100310 45
2009-11-16 14:45 51°22.154 3°8.173 14.5 327 12.9 100300 46
2009-11-16 14:46 51°22.089 3°7.941 12.9 327 12.9 100300 45
2009-11-16 14:47 51°22.025 3°7.713 15.6 329 12.9 100310 45
2009-11-16 14:48 51°21.961 3°7.476 13.4 329 12.9 100310 45
2009-11-16 14:49 51°21.9 3°7.252 14.3 326 12.9 100320 46
2009-11-16 14:50 51°21.835 3°7.01 13.4 328 12.9 100300 45
2009-11-16 14:51 51°21.771 3°6.771 13.9 329 13 100300 44
2009-11-16 14:52 51°21.709 3°6.532 13.6 325 13 100310 44
2009-11-16 14:53 51°21.646 3°6.294 15.2 328 13.1 100300 46
2009-11-16 14:54 51°21.586 3°6.07 18.4 328 13.1 100310 44
2009-11-16 14:55 51°21.525 3°5.835 18.7 326 13.2 100310 44
2009-11-16 14:56 51°21.465 3°5.611 16.5 331 13.2 100280 44
2009-11-16 14:57 51°21.406 3°5.382 17.9 329 13.2 100260 43
2009-11-16 14:58 51°21.344 3°5.15 18.3 328 13.2 100300 43
2009-11-16 14:59 51°21.283 3°4.921 18.5 327 13.2 100290 44
2009-11-16 15:00 51°21.224 3°4.695 19.2 328 13.3 100310 44
2009-11-16 15:01 51°21.167 3°4.457 16.8 328 13.3 100310 44
2009-11-16 15:02 51°21.116 3°4.236 15.1 325 13.3 100290 45
2009-11-16 15:03 51°21.061 3°4.011 18.2 326 13.2 100280 44
2009-11-16 15:04 51°21.009 3°3.792 18.3 325 13.2 100300 43
2009-11-16 15:05 51°20.954 3°3.567 17.7 327 13.2 100320 45
2009-11-16 15:06 51°20.903 3°3.353 17.3 327 13.2 100320 43
2009-11-16 15:07 51°20.852 3°3.133 17.5 323 13.2 100320 44
2009-11-16 15:08 51°20.798 3°2.915 19.8 327 13.3 100320 44
2009-11-16 15:09 51°20.745 3°2.698 18.6 327 13.3 100290 43
2009-11-16 15:10 51°20.69 3°2.478 18.9 328 13.3 100300 43
2009-11-16 15:11 51°20.625 3°2.266 19.6 327 13.3 100300 44
2009-11-16 15:12 51°20.56 3°2.05 16.8 329 13.2 100310 44
2009-11-16 15:13 51°20.499 3°1.842 18.9 330 13.2 100330 44
2009-11-16 15:14 51°20.436 3°1.625 17.1 329 13.2 100330 44
2009-11-16 15:15 51°20.374 3°1.414 19.4 328 13.2 100320 43
2009-11-16 15:16 51°20.313 3°1.189 20.3 327 13.2 100320 44
2009-11-16 15:17 51°20.256 3°0.963 16.9 323 13.3 100330 44
2009-11-16 15:18 51°20.203 3°0.748 15.3 326 13.3 100320 44
2009-11-16 15:19 51°20.139 3°0.536 15.5 328 13.3 100310 44
2009-11-16 15:20 51°20.079 3°0.335 16.1 328 13.2 100330 44
2009-11-16 15:21 51°20.015 3°0.117 14.5 329 13.2 100360 44
2009-11-16 15:22 51°19.945 2°59.888 15.3 328 13.2 100340 44
2009-11-16 15:23 51°19.881 2°59.664 18 328 13.2 100350 44
2009-11-16 15:24 51°19.813 2°59.44 17 329 13.1 100340 45
2009-11-16 15:25 51°19.745 2°59.215 17.5 328 13.2 100330 45
2009-11-16 15:26 51°19.68 2°59 13.4 325 13.2 100340 44
2009-11-16 15:27 51°19.617 2°58.787 18.7 328 13.2 100330 44
2009-11-16 15:28 51°19.554 2°58.576 14.8 325 13.3 100330 43
2009-11-16 15:29 51°19.487 2°58.364 18.6 325 13.3 100310 45
2009-11-16 15:30 51°19.427 2°58.149 14.3 329 13.3 100310 43
2009-11-16 15:31 51°19.36 2°57.928 16.4 327 13.2 100330 45
2009-11-16 15:32 51°19.299 2°57.717 14.2 329 13.2 100340 45
2009-11-16 15:33 51°19.233 2°57.497 16.5 328 13.2 100330 45
2009-11-16 15:34 51°19.169 2°57.275 15.9 327 13.2 100360 45
2009-11-16 15:35 51°19.085 2°56.995 18 327 13.3 100320 44
2009-11-16 15:36 51°19.021 2°56.781 17.1 326 13.3 100340 44
2009-11-16 15:37 51°18.953 2°56.559 18.3 328 13.3 100280 44
2009-11-16 15:38 51°18.873 2°56.366 16.4 331 13.3 100310 43
2009-11-16 15:39 51°18.778 2°56.173 16.2 333 13.3 100340 43
2009-11-16 15:40 51°18.688 2°55.984 15.9 330 13.3 100360 44
2009-11-16 15:41 51°18.597 2°55.775 17.9 332 13.3 100370 44
2009-11-16 15:42 51°18.508 2°55.565 16.3 332 13.4 100320 43
2009-11-16 15:43 51°18.42 2°55.355 17.9 327 13.4 100360 44
2009-11-16 15:44 51°18.333 2°55.144 17.6 331 13.4 100370 43
2009-11-16 15:45 51°18.244 2°54.931 16.5 329 13.4 100370 43
2009-11-16 15:46 51°18.159 2°54.727 15.2 331 13.4 100370 44
2009-11-16 15:47 51°18.07 2°54.52 16.4 329 13.4 100370 45
2009-11-16 15:48 51°18.008 2°54.304 13.4 324 13.4 100410 45
2009-11-16 15:49 51°17.955 2°54.066 14.5 325 13.4 100400 44
2009-11-16 15:50 51°17.905 2°53.831 13.3 323 13.4 100350 44
2009-11-16 15:51 51°17.853 2°53.601 15.1 322 13.3 100390 45
2009-11-16 15:52 51°17.798 2°53.36 14.7 321 13.3 100370 45
2009-11-16 15:53 51°17.738 2°53.115 14.8 327 13.3 100380 44
2009-11-16 15:54 51°17.662 2°52.885 19.2 332 13.3 100390 45
2009-11-16 15:55 51°17.571 2°52.69 17.8 331 13.3 100370 45
2009-11-16 15:56 51°17.452 2°52.513 14.3 337 13.3 100390 45
2009-11-16 15:57 51°17.294 2°52.476 15.1 354 13.3 100380 43
2009-11-16 15:58 51°17.136 2°52.518 12.1 349 13.3 100370 44
2009-11-16 15:59 51°16.978 2°52.584 13.7 354 13.3 100380 45
2009-11-16 16:00 51°16.823 2°52.678 12.5 352 13.3 100380 45
2009-11-16 16:01 51°16.669 2°52.788 11.8 352 13.2 100380 43
2009-11-16 16:02 51°16.514 2°52.905 12.2 352 13.2 100370 45
2009-11-16 16:03 51°16.357 2°53.014 15.8 355 13.3 100390 43
2009-11-16 16:04 51°16.198 2°53.119 13.7 356 13.3 100380 45
2009-11-16 16:05 51°16.045 2°53.231 13.1 356 13.3 100380 44
2009-11-16 16:06 51°15.892 2°53.353 11.8 351 13.3 100390 43
2009-11-16 16:07 51°15.741 2°53.472 12.9 355 13.3 100390 43
2009-11-16 16:08 51°15.585 2°53.592 11.7 347 13.3 100390 43
2009-11-16 16:09 51°15.435 2°53.714 13.1 354 13.3 100400 45
2009-11-16 16:10 51°15.276 2°53.81 13.7 350 13.2 100390 43
2009-11-16 16:11 51°15.109 2°53.855 15.6 349 13.2 100400 42
2009-11-16 16:12 51°14.944 2°53.895 12.6 353 13.2 100410 44
2009-11-16 16:13 51°14.815 2°54.072 10.1 4 13.2 100420 43
2009-11-16 16:14 51°14.711 2°54.288 9.4 2 13.1 100420 44
2009-11-16 16:15 51°14.614 2°54.528 10.3 4 13 100430 44
2009-11-16 16:16 51°14.506 2°54.751 9.7 2 13 100430 43
2009-11-16 16:17 51°14.397 2°54.973 7.9 3 12.9 100430 43
2009-11-16 16:18 51°14.294 2°55.197 7.1 352 12.8 100450 43
2009-11-16 16:19 51°14.181 2°55.363 3.7 332 12.7 100460 46
2009-11-16 16:20 51°14.07 2°55.453 5.1 340 12.7 100450 41
2009-11-16 16:21 51°13.971 2°55.527 6.3 346 12.7 100450 45
2009-11-16 16:22 51°13.862 2°55.605 6.3 343 12.7 100460 42
2009-11-16 16:23 51°13.764 2°55.699 3.6 334 12.7 100460 45
2009-11-16 16:24 51°13.712 2°55.805 4.2 357 12.7 100460 41
2009-11-16 16:25 51°13.675 2°55.903 3.8 18 12.7 100470 45
2009-11-16 16:26 51°13.663 2°55.958 1.9 29 12.6 100480 44